User: anonymous   Login
Location: Unspecified
(0.0000°N, 0.0000°E)
Time: 23:11:44
(UTC+00:00)
Language:

NATO 4A - Orbit

View from above orbital plane
View from above orbital plane
View from above satellite
View from above satellite

Ground track
Ground track

The orbit data is extracted from the following two-line orbital elements,

1 21047U 91001A   21332.51574003 -.00000099  00000-0  00000-0 0  9990
2 21047  13.2425   4.6086 0003429 143.2106 217.0172  0.98283017111788
Epoch (UTC): 28 November 2021 12:22:39
Eccentricity: 0.0003429
inclination: 13.2425°
perigee height: 36338 km
apogee height: 36368 km
right ascension of ascending node: 4.6086°
argument of perigee: 143.2106°
revolutions per day: 0.98283017
mean anomaly at epoch: 217.0172°
orbit number at epoch: 11178

The dashed part of the orbit path shows where the satellite is in the earth's shadow,  

DLR